Regional Weather Roundup
Issued by NWS

Home | Current Version | Previous Version | Text Only | Print | Product List | Glossary On
Versions: 1 2 3 4 5 6 7 8 9 10 11 12 13 14 15 16 17 18 19 20 21 22 23 24 25 26 27 28 29 30 31 32 33 34 35 36 37 38 39 40 41 42 43 44 45 46 47 48 49 50
000
ASUS43 KOAX 252210
RWRNE

WEATHER ROUNDUP FOR NEBRASKA
NATIONAL WEATHER SERVICE OMAHA NE
500 PM CDT THU MAY 25 2017

NOTES: SATELLITE DATA IS BEING USED TO AUGMENT CLOUD COVER ABOVE
       12000 FEET.
       "FAIR" INDICATES FEW OR NO CLOUDS BELOW 12,000 FEET WITH NO
       SIGNIFICANT WEATHER AND/OR OBSTRUCTIONS TO VISIBILITY.

  * THESE STATIONS DO NOT REPORT WEATHER SUCH AS RAIN...SNOW OR FOG.

NEZ001>004-019>022-054>056-252300-
NEBRASKA PANHANDLE

CITY           SKY/WX    TMP DP  RH WIND       PRES   REMARKS
SCOTTSBLUFF    LGT RAIN  69  47  45 W7        29.60F
ALLIANCE       LGT RAIN  60  51  72 W15G29    29.62R
CHADRON        MOSUNNY   70  45  40 N10G17    29.59R
GORDON         FAIR      71  45  40 N5        29.58S
KIMBALL        SUNNY     69  42  37 N16G24    29.63S
SIDNEY         CLOUDY    70  50  49 N14G23    29.61R
$$

NEZ057>060-069>072-079>082-252300-
SOUTHWEST NEBRASKA

CITY           SKY/WX    TMP DP  RH WIND       PRES   REMARKS
NORTH PLATTE   CLOUDY    75  56  51 NW6       29.57R
IMPERIAL       CLOUDY    64  56  75 NE5       29.56F
LEXINGTON      CLOUDY    74  55  52 SE6       29.52R
MCCOOK         SUNNY     79  53  40 NE8       29.51R
OGALLALA       CLOUDY    62  54  74 NE17      29.51F
$$

NEZ005>010-023>029-035>040-094-252300-
NORTH CENTRAL NEBRASKA

CITY           SKY/WX    TMP DP  RH WIND       PRES   REMARKS
VALENTINE      MOSUNNY   73  41  31 NE8       29.56R
AINSWORTH      SUNNY     69  51  51 N8        29.55S
BROKEN BOW     CLOUDY    71  53  52 E5        29.54R
O`NEILL        SUNNY     72  51  47 S3        29.54S
ORD            SUNNY     73  50  44 VRB6      29.51S
THEDFORD       CLOUDY    72  51  47 N6        29.57R
$$

NEZ041-046>049-061>064-073>077-083>087-252300-
SOUTH CENTRAL NEBRASKA

CITY           SKY/WX    TMP DP  RH WIND       PRES   REMARKS
GRAND ISLAND   SUNNY     74  53  48 S8G18     29.51F
AURORA         SUNNY     75  51  43 SE7G16    29.51F
HASTINGS       SUNNY     75  54  47 S12       29.51F
HEBRON         SUNNY     78  53  41 S15       29.51S
HOLDREGE       SUNNY     76  51  40 S6        29.51R
KEARNEY *      SUNNY     75  52  43 S7G17     29.51S
YORK           SUNNY     75  50  41 SE10G17   29.52F
$$

NEZ011>018-030>034-042>045-252300-
NORTHEAST NEBRASKA

CITY           SKY/WX    TMP DP  RH WIND       PRES   REMARKS
NORFOLK        PTSUNNY   74  49  41 S10       29.53R
ALBION         SUNNY     76  51  41 S12       29.52S
BLAIR          MOSUNNY   75  52  43 SE10G18   29.56R
FREMONT        CLOUDY    74  50  43 SE17G24   29.51F
TEKAMAH        MOSUNNY   73  53  49 SE16      29.54S
WAYNE          CLOUDY    74  50  42 S13G22    29.54S
$$

NEZ050>053-065>068-078-088>093-252300-
SOUTHEAST NEBRASKA

CITY           SKY/WX    TMP DP  RH WIND       PRES   REMARKS
LINCOLN        PTSUNNY   77  52  41 S16       29.53R
OMAHA EPPLEY   MOSUNNY   76  51  41 SE14      29.55S
BEATRICE       SUNNY     76  55  47 SE16      29.53R
FALLS CITY     PTSUNNY   73  53  49 SE20G26   29.55S
NEBRASKA CITY  MOSUNNY   74  46  36 S15       29.55S
PLATTSMOUTH    SUNNY     76  50  39 SE13      29.56S
$$

NEZ044-045-051>053-067-252300-
OMAHA AREA

CITY           SKY/WX    TMP DP  RH WIND       PRES   REMARKS
OMAHA EPPLEY   MOSUNNY   76  51  41 SE14      29.55S
BLAIR          MOSUNNY   75  52  43 SE10G18   29.56R
FREMONT        CLOUDY    74  50  43 SE17G24   29.51F
MILLARD        SUNNY     76  55  48 SE12G18   29.54S
OFFUTT AFB     CLOUDY    76  52  42 SE16      29.54S
PLATTSMOUTH    SUNNY     76  50  39 SE13      29.56S
WAHOO          FAIR      75  49  40 SE14G21   29.53S
$$




USA.gov is the U.S. government's official web portal to all federal, state and local government web resources and services.